Location: City of Moscow
(46.7306°N, 116.9989°W)
Time: 23:02:31
(UTC+00:00)

Cosmos 1553 Rocket - Visible Passes

Search period start: 12 March 2026 00:00
Search period end: 22 March 2026 00:00
Orbit: 940 x 1008 km, 82.9° (Epoch: 12 March)

Date Brightness Start Highest point End Pass type
(mag) Time Alt. Az. Time Alt. Az. Time Alt. Az.
12 Mar 4.7 03:39:16 10° NNW 03:45:13 54° W 03:51:13 10° SSW visible
13 Mar 4.3 02:18:53 10° N 02:24:45 45° ENE 02:30:39 10° SSE visible
13 Mar 5.7 04:04:36 10° NNW 04:09:54 32° W 04:15:14 10° SW visible
14 Mar 3.9 02:43:38 10° N 02:49:48 76° E 02:56:00 10° SSE visible
14 Mar 6.5 04:30:25 10° NW 04:34:25 18° W 04:38:27 10° WSW visible
15 Mar 4.4 03:08:37 10° NNW 03:14:40 64° W 03:20:48 10° S visible
16 Mar 5.5 03:33:50 10° NNW 03:39:24 37° W 03:45:02 10° SSW visible
17 Mar 6.4 03:59:26 10° NW 04:03:58 22° W 04:08:33 10° SW visible
18 Mar 4.3 02:37:58 10° NNW 02:44:07 76° W 02:50:21 10° S visible
18 Mar 7.0 04:26:05 10° NW 04:28:23 12° WNW 04:30:41 10° W visible
19 Mar 5.3 03:03:06 10° NNW 03:08:54 44° W 03:14:46 10° SSW visible
20 Mar 6.3 03:28:33 10° NNW 03:33:31 26° W 03:38:32 10° SW visible
21 Mar 6.9 03:54:41 10° NW 03:57:59 15° WNW 04:01:18 10° WSW visible
